FW1161 Weather Reports


Display with metric or nautical units.
time (UTC)temp
F
wind
direction
speed
MPH
gust
MPH
rain 1hr
in
rain 24hr
in
rain mn
in
humidity
%
barometer
mb
20260506131601 67 272 3.0 10.0 0.00 0.00 0.00 73 1001.7
20260506130030 67 267 3.0 8.0 0.00 0.00 0.00 73 1002.1
20260506124558 67 246 2.0 5.0 0.00 0.00 0.00 75 1001.8
20260506123009 66 303 2.0 4.0 0.00 0.00 0.00 75 1001.8
20260506121551 66 273 1.0 4.0 0.00 0.00 0.00 77 1001.6
20260506120011 65 268 2.0 10.0 0.00 0.00 0.00 78 1001.9
20260506114527 65 278 2.0 7.0 0.00 0.00 0.00 78 1001.9
20260506113057 65 274 1.0 6.0 0.00 0.00 0.00 78 1001.8
20260506111518 65 277 0.0 6.0 0.00 0.00 0.00 79 1001.8
20260506110006 64 237 1.0 8.0 0.00 0.00 0.00 79 1001.7
20260506104522 64 296 2.0 5.0 0.00 0.00 0.00 80 1001.8
20260506103007 64 275 0.0 5.0 0.00 0.00 0.00 81 1001.7
20260506101536 64 253 1.0 6.0 0.00 0.00 0.00 81 1001.6
20260506100108 64 252 1.0 5.0 0.00 0.00 0.00 81 1001.7
20260506094505 64 292 1.0 5.0 0.00 0.00 0.00 81 1001.4
20260506093032 64 270 1.0 6.0 0.00 0.00 0.00 80 1001.4
20260506091556 65 233 1.0 8.0 0.00 0.00 0.00 80 1001.5
20260506090019 65 262 1.0 5.0 0.00 0.00 0.00 80 1001.6
20260506084553 64 266 1.0 5.0 0.00 0.00 0.00 80 1001.6
20260506083007 64 251 1.0 3.0 0.00 0.00 0.00 81 1001.7
20260506081533 65 266 0.0 4.0 0.00 0.00 0.00 80 1001.8
20260506073052 65 273 0.0 5.0 0.00 0.00 0.00 78 1001.9
20260506071508 66 253 0.0 3.0 0.00 0.00 0.00 78 1001.9
20260506061543 67 276 0.0 7.0 0.00 0.00 0.00 76 1002.2
20260506044509 67 251 2.0 6.0 0.00 0.00 0.00 71 1002.6
20260506043036 68 246 1.0 5.0 0.00 0.00 0.00 70 1002.6
20260506041603 68 267 0.0 4.0 0.00 0.00 0.00 68 1002.7
20260506040011 69 263 1.0 5.0 0.00 0.00 0.00 67 1002.7
20260506034609 69 242 1.0 7.0 0.00 0.00 0.00 66 1002.5
20260506033106 69 243 1.0 7.0 0.00 0.00 0.00 65 1002.4
20260506031538 69 256 1.0 6.0 0.00 0.00 0.00 64 1002.5
20260506030051 69 265 1.0 6.0 0.00 0.00 0.00 63 1002.6
20260506024526 69 244 1.0 5.0 0.00 0.00 0.00 63 1002.6
20260506023056 70 268 1.0 4.0 0.00 0.00 0.00 63 1002.7
20260506021516 70 243 0.0 3.0 0.00 0.00 0.00 62 1002.7
20260506020047 70 237 0.0 4.0 0.00 0.00 0.00 61 1002.6
20260506014557 71 238 1.0 5.0 0.00 0.00 0.00 59 1002.5
20260506013010 72 240 1.0 6.0 0.00 0.00 0.00 55 1002.3
20260506011524 73 249 0.0 5.0 0.00 0.00 0.00 52 1002.2
20260506010120 74 278 0.0 4.0 0.00 0.00 0.00 50 1002.1
20260506004526 75 247 1.0 6.0 0.00 0.00 0.00 47 1002.0
20260506003100 75 256 0.0 7.0 0.00 0.00 0.00 44 1001.8
20260506001513 76 263 1.0 4.0 0.00 0.00 0.00 44 1001.7
20260506000037 77 286 2.0 6.0 0.00 0.00 0.00 43 1001.5
20260505234501 77 259 2.0 6.0 0.00 0.00 0.00 44 1001.3
20260505233039 77 251 4.0 7.0 0.00 0.00 0.00 43 1001.3
20260505231600 78 244 2.0 6.0 0.00 0.00 0.00 43 1001.2
20260505230026 79 269 3.0 8.0 0.00 0.00 0.00 41 1001.2
20260505224541 80 266 4.0 11.0 0.00 0.00 0.00 40 1001.1
20260505223059 81 282 4.0 9.0 0.00 0.00 0.00 36 1000.9
20260505221521 82 254 2.0 15.0 0.00 0.00 0.00 35 1000.8
20260505220037 82 249 3.0 21.0 0.00 0.00 0.00 34 1000.8
20260505214633 83 279 3.0 9.0 0.00 0.00 0.00 33 1000.4
20260505213026 82 249 4.0 21.0 0.00 0.00 0.00 32 1000.7
20260505211551 83 263 4.0 17.0 0.00 0.00 0.00 32 1000.8
20260505210017 82 187 6.0 16.0 0.00 0.00 0.00 31 1000.8
20260505204540 83 234 4.0 14.0 0.00 0.00 0.00 29 1000.6
20260505203002 84 251 5.0 20.0 0.00 0.00 0.00 29 1000.6
20260505201526 83 261 5.0 11.0 0.00 0.00 0.00 30 1000.5
20260505200003 83 227 3.0 11.0 0.00 0.00 0.00 31 1000.7
20260505194535 83 256 4.0 12.0 0.00 0.00 0.00 32 1000.8
20260505193100 82 250 8.0 20.0 0.00 0.00 0.00 33 1000.8
20260505191516 82 197 5.0 15.0 0.00 0.00 0.00 35 1001.2
20260505190056 82 250 2.0 14.0 0.00 0.00 0.00 38 1001.3
20260505184505 82 266 4.0 10.0 0.00 0.00 0.00 36 1001.5
20260505183100 82 273 2.0 8.0 0.00 0.00 0.00 39 1001.8
20260505181503 81 273 4.0 10.0 0.00 0.00 0.00 39 1001.9
20260505180012 81 279 2.0 9.0 0.00 0.00 0.00 42 1002.2
20260505173041 80 282 5.0 16.0 0.00 0.00 0.00 42 1002.3
20260505171513 81 260 3.0 11.0 0.00 0.00 0.00 42 1002.5
20260505170030 81 248 2.0 5.0 0.00 0.00 0.00 43 1002.4
20260505164555 80 255 3.0 6.0 0.00 0.00 0.00 45 1002.7
20260505163030 79 249 2.0 8.0 0.00 0.00 0.00 45 1002.7
20260505161536 79 249 2.0 8.0 0.00 0.00 0.00 44 1002.8
20260505153003 79 251 1.0 5.0 0.00 0.00 0.00 44 1003.2
20260505151604 78 257 0.0 4.0 0.00 0.00 0.00 49 1003.2